Flag for Germany Weather past 2 weeks in Waldkraiburg, Bavaria, Germany

Now
59 °F

Cool.


Feels Like: 59 °F
Forecast: 50 / 76 °F
Wind: 2 mph from Southwest

Location: Erding Airport

Current Time: Jul 25, 2014 at 1:05:45 AM

Latest Report: Jul 25, 2014 at 12:20 AM


Visibility: 2 mi

Pressure: 29.92 "Hg

Humidity: 94%

Dew point: 57 °F

Location of WaldkraiburgLocation

Historic Weather in Waldkraiburg — Graph

°F

Waldkraiburg temperature yesterday

Maximum temperature yesterday: 75 °F (at 1:20 PM)
Minimum temperature yesterday: 52 °F (at 6:20 AM)
Average temperature yesterday: 65 °F

Past Weeks' High & Low Weather Summary

 TemperatureHumidityPressure
High81 °F (Jul 16, 4:20 PM)100% (Jul 10, 10:20 PM)30.21 "Hg (Jul 10, 10:20 PM)
Low52 °F (Jul 10, 3:20 AM)37% (Jul 17, 5:20 PM)29.80 "Hg (Jul 10, 2:20 AM)
Average65 °F79%29.98 "Hg
* Reported Jul 9 11:20 PM — Jul 24 11:20 PM, Waldkraiburg, Weather by CustomWeather, © 2014

Note: Actual official high and low records may vary slightly from our data, if they occured in-between our weather recording intervals... More about our weather records

Advertising

Waldkraiburg weather history for previous 24 hours

 ConditionsComfort  
Time TempWeatherWind HumidityBarometerVisibility
11:20 PM
Jul 24
63 °FMild.2 mph83%29.92 "Hg2 mi
10:20 PM63 °FMild.3 mph83%29.92 "Hg2 mi
9:20 PM66 °FMild.2 mph68%29.89 "Hg2 mi
8:20 PM72 °FMild.3 mph53%29.89 "Hg2 mi
7:20 PM75 °FMild.3 mph47%29.89 "Hg2 mi
6:20 PM73 °FMild.3 mph57%29.89 "Hg2 mi
5:20 PM72 °FMild.2 mph69%29.89 "Hg2 mi
4:20 PM70 °FSprinkles. Broken clouds.5 mph64%29.89 "HgN/A
3:20 PM75 °FBroken clouds.5 mph50%29.89 "HgN/A
2:20 PM75 °FPartly sunny.6 mph50%29.89 "HgN/A
1:20 PM75 °FScattered clouds.6 mph54%29.92 "HgN/A
12:20 PM73 °FScattered clouds.7 mph57%29.92 "HgN/A
11:20 AM72 °FScattered clouds.7 mph65%29.92 "HgN/A
10:20 AM70 °FScattered clouds.7 mph69%29.92 "HgN/A
9:20 AM66 °FScattered clouds.8 mph78%29.92 "HgN/A
8:20 AM63 °FScattered clouds.3 mph94%29.92 "HgN/A
7:52 AM59 °FFog.6 mph100%29.92 "Hg3 mi
7:20 AM57 °FPassing clouds.3 mph100%29.92 "Hg6 mi
6:20 AM52 °FCool.3 mph100%29.92 "Hg2 mi
5:20 AM54 °FCool.3 mph100%29.92 "Hg2 mi
4:20 AM55 °FCool.3 mph100%29.92 "Hg2 mi
3:20 AM54 °FCool.2 mph100%29.92 "Hg2 mi
2:20 AM55 °FCool.1 mph100%29.95 "Hg2 mi
1:20 AM57 °FCool.No wind94%29.95 "Hg2 mi
Weather by CustomWeather, © 2014

See weather overviewHow to use our weather pages